Home > Time Zones > World Clock > Weather > Latvia > Riga > Past weeks

Flag for Latvia Weather past 2 weeks in Riga, Latvia

Now
36 °F

Mostly cloudy.


Feels Like: 29 °F
Forecast: 33 / 38 °F
Wind: 8 mph from Southwest

Location: Riga Airport

Current Time: Mar 4, 2015 at 12:55:09 AM

Latest Report: Mar 4, 2015 at 12:20 AM


Visibility: N/A

Pressure: 29.68 "Hg

Humidity: 100%

Dew point: 36 °F

Location of RigaLocation

Historic Weather in Riga — Graph

°F

Riga temperature yesterday

Maximum temperature yesterday: 39 °F (at 12:20 AM)
Minimum temperature yesterday: 32 °F (at 8:20 AM)
Average temperature yesterday: 37 °F

Past Weeks' High & Low Weather Summary

 TemperatureHumidityPressure
High45 °F (Feb 21, 2:20 PM)100% (Feb 18, 10:50 PM)30.74 "Hg (Feb 18, 10:50 PM)
Low19 °F (Feb 17, 4:50 AM)32% (Feb 17, 2:20 PM)29.30 "Hg (Mar 3, 5:50 AM)
Average35 °F89%29.89 "Hg
* Reported Feb 16 11:20 PM — Mar 3 11:20 PM, Riga, Weather by CustomWeather, © 2015

Note: Actual official high and low records may vary slightly from our data, if they occured in-between our weather recording intervals... More about our weather records

Advertising

Riga weather history for previous 24 hours

 ConditionsComfort  
Time TempWeatherWind HumidityBarometerVisibility
11:20 PM
Tue, Mar 3
36 °FLight rain. Low clouds.8 mph100%29.68 "HgN/A
10:50 PM36 °FLight rain. Low clouds.8 mph100%29.68 "HgN/A
10:20 PM36 °FLight rain. Low clouds.9 mph100%29.65 "HgN/A
9:50 PM36 °FLight rain. Low clouds.9 mph100%29.65 "HgN/A
9:20 PM36 °FLight rain. Low clouds.9 mph93%29.62 "HgN/A
8:50 PM36 °FLight rain. Overcast.9 mph100%29.62 "HgN/A
8:20 PM36 °FLight rain. Overcast.9 mph100%29.62 "HgN/A
7:50 PM37 °FLight rain. Overcast.9 mph93%29.59 "HgN/A
7:20 PM37 °FPassing clouds.9 mph93%29.59 "HgN/A
6:50 PM37 °FSprinkles. Passing clouds.9 mph93%29.56 "HgN/A
6:20 PM37 °FPartly cloudy.10 mph93%29.56 "HgN/A
5:50 PM37 °FBroken clouds.9 mph93%29.56 "HgN/A
5:20 PM37 °FSprinkles. Broken clouds.10 mph93%29.53 "HgN/A
4:50 PM39 °FBroken clouds.10 mph87%29.53 "HgN/A
4:20 PM39 °FBroken clouds.10 mph93%29.50 "HgN/A
3:50 PM37 °FBroken clouds.12 mph100%29.50 "Hg6 mi
3:20 PM39 °FSprinkles. More clouds than sun.16 mph87%29.47 "HgN/A
2:50 PM39 °FMostly cloudy.14 mph87%29.47 "HgN/A
2:20 PM39 °FMostly cloudy.15 mph87%29.47 "HgN/A
1:50 PM39 °FMostly cloudy.15 mph93%29.47 "HgN/A
1:20 PM39 °FMostly cloudy.18 mph93%29.45 "HgN/A
12:50 PM37 °FMostly cloudy.17 mph93%29.45 "HgN/A
12:20 PM37 °FMostly cloudy.15 mph100%29.42 "HgN/A
11:50 AM37 °FMostly cloudy.16 mph93%29.42 "HgN/A
11:20 AM37 °FMostly cloudy.17 mph93%29.42 "HgN/A
10:50 AM36 °FLight rain. Mostly cloudy.17 mph100%29.39 "HgN/A
10:20 AM34 °FLight snow. Mostly cloudy.15 mph100%29.39 "Hg6 mi
9:50 AM34 °FChilly.15 mph100%29.36 "Hg1 mi
9:20 AM34 °FSnow. Mostly cloudy.18 mph100%29.36 "Hg1 mi
8:50 AM34 °FSnow. Low clouds.16 mph100%29.33 "Hg2 mi
8:20 AM32 °FSnow. Dense fog.16 mph100%29.33 "Hg1 mi
7:50 AM34 °FChilly.16 mph93%29.30 "Hg1 mi
7:20 AM34 °FLight rain. Mostly cloudy.16 mph100%29.30 "Hg6 mi
6:50 AM34 °FLight rain. Mostly cloudy.15 mph100%29.30 "HgN/A
6:20 AM36 °FLight rain. Mostly cloudy.14 mph93%29.30 "HgN/A
5:50 AM36 °FLight rain. Mostly cloudy.10 mph93%29.30 "HgN/A
5:20 AM36 °FLight rain. Mostly cloudy.9 mph100%29.33 "HgN/A
4:50 AM36 °FLight rain. Mostly cloudy.12 mph93%29.33 "HgN/A
4:20 AM37 °FLight rain. Mostly cloudy.21 mph87%29.33 "HgN/A
3:50 AM39 °FLight rain. Mostly cloudy.10 mph100%29.33 "Hg5 mi
3:20 AM39 °FMostly cloudy.9 mph100%29.33 "HgN/A
2:50 AM39 °FLight rain. Mostly cloudy.8 mph93%29.33 "HgN/A
2:20 AM39 °FLight rain. Mostly cloudy.8 mph93%29.36 "HgN/A
1:50 AM39 °FLight rain. Mostly cloudy.9 mph93%29.36 "Hg4 mi
1:20 AM39 °FLight rain. Mostly cloudy.8 mph93%29.39 "Hg4 mi
12:50 AM37 °FLight rain. Overcast.8 mph100%29.39 "Hg4 mi
12:20 AM39 °FLight rain. Mostly cloudy.6 mph93%29.42 "Hg4 mi
Weather by CustomWeather, © 2015

See weather overviewHow to use our weather pages